Hourly Data Report for May 15, 2021

ST-JOVITE
QUEBEC
Current Station Operator: ECCC - MSC

46°04'49.000" N
74°33'21.000" W
238.50 m
703GDKB
71376
WJT

Download Data

Hourly Data (May 2021)
Hourly Data Report for May 15, 2021
TIME
LST
Temp Definition
°C
Dew Point Definition
°C
Rel Hum Definition
%
Precip. Amount Definition
mm

Wind Dir Definition
10's deg

Wind Spd Definition
km/h
Visibility Definition
km
Stn Press Definition
kPa
Hmdx Definition


Wind Chill Definition


Weather Definition


00:00 7.5 4.3 81 0.0   0   99.17     LegendNANA
01:00 6.7 4.1 84 0.0 5 2   99.16     LegendNANA
02:00 5.6 3.6 87 0.0 4 2   99.17     LegendNANA
03:00 4.0 2.5 90 0.0 0 1   99.21     LegendNANA
04:00 4.5 2.8 89 0.0 3 3   99.21     LegendNANA
05:00 3.2 2.1 93 0.0   0   99.24     LegendNANA
06:00 4.4 3.3 93 0.0   0   99.28     LegendNANA
07:00 8.1 5.4 83 0.0   0   99.30     LegendNANA
08:00 13.9 6.0 59 0.0 22 1   99.31     LegendNANA
09:00 18.1 5.4 43 0.0 23 3   99.29     LegendNANA
10:00 20.6 4.2 34 0.0 31 3   99.27     LegendNANA
11:00 21.1 0.4 25 0.0 27 5   99.22     LegendNANA
12:00 22.1 1.3 25 0.0 26 7   99.20     LegendNANA
13:00 20.0 1.1 28 0.0 23 6   99.27     LegendNANA
14:00 20.7 1.4 28 0.0 22 10   99.23     LegendNANA
15:00 20.9 1.0 27 0.0 18 6   99.17     LegendNANA
16:00 22.7 2.3 26 0.0 24 4   99.08     LegendNANA
17:00 22.1 1.5 26 0.0 18 3   99.08     LegendNANA
18:00 19.0 2.5 33 0.0 30 2   99.15     LegendNANA
19:00 16.8 3.4 41 0.0 5 2   99.19     LegendNANA
20:00 13.0 4.7 57 0.0 6 2   99.19     LegendNANA
21:00 10.5 5.0 68 0.0 4 2   99.28     LegendNANA
22:00 8.8 4.7 75 0.0 6 2   99.33     LegendNANA
23:00 9.2 5.5 77 0.0 5 2   99.31     LegendNANA

Notes on Data Quality.

Legend

  • E = Estimated
  • M = Missing
  • NA = Not Available*
  • [empty] = Indicates an unobserved value
Date modified: